Year,Month,Day,Hour,Minute,Value (Times are PST for temperature in C)
2012,07,15,00,00,14.90
2012,07,15,00,01,14.90
2012,07,15,00,02,14.90
2012,07,15,00,03,14.90
2012,07,15,00,04,14.90
2012,07,15,00,05,14.90
2012,07,15,00,06,14.90
2012,07,15,00,07,14.90
2012,07,15,00,08,14.90
2012,07,15,00,09,15.00
2012,07,15,00,10,15.00
2012,07,15,00,11,15.00
2012,07,15,00,12,14.90
2012,07,15,00,13,14.90
2012,07,15,00,14,15.00
2012,07,15,00,15,15.00
2012,07,15,00,16,15.00
2012,07,15,00,17,15.00
2012,07,15,00,18,15.00
2012,07,15,00,19,15.00
2012,07,15,00,20,15.00
2012,07,15,00,21,15.00
2012,07,15,00,22,15.00
2012,07,15,00,23,15.00
2012,07,15,00,24,15.00
2012,07,15,00,25,15.00
2012,07,15,00,26,15.00
2012,07,15,00,27,15.00
2012,07,15,00,28,15.00
2012,07,15,00,29,15.10
2012,07,15,00,30,15.10
2012,07,15,00,31,15.20
2012,07,15,00,32,15.30
2012,07,15,00,33,15.30
2012,07,15,00,34,15.40
2012,07,15,00,35,15.40
2012,07,15,00,36,15.40
2012,07,15,00,37,15.40
2012,07,15,00,38,15.40
2012,07,15,00,39,15.40
2012,07,15,00,40,15.40
2012,07,15,00,41,15.30
2012,07,15,00,42,15.40
2012,07,15,00,43,15.40
2012,07,15,00,44,15.50
2012,07,15,00,45,15.60
2012,07,15,00,46,15.60
2012,07,15,00,47,15.70
2012,07,15,00,48,15.70
2012,07,15,00,49,15.80
2012,07,15,00,50,15.80
2012,07,15,00,51,15.80
2012,07,15,00,52,15.80
2012,07,15,00,53,15.80
2012,07,15,00,54,15.80
2012,07,15,00,55,15.80
2012,07,15,00,56,15.80
2012,07,15,00,57,15.80
2012,07,15,00,58,15.80
2012,07,15,00,59,15.80
2012,07,15,01,00,15.70
2012,07,15,01,01,15.70
2012,07,15,01,02,15.70
2012,07,15,01,03,15.70
2012,07,15,01,04,15.70
2012,07,15,01,05,15.70
2012,07,15,01,06,15.70
2012,07,15,01,07,15.60
2012,07,15,01,08,15.60
2012,07,15,01,09,15.60
2012,07,15,01,10,15.60
2012,07,15,01,11,15.60
2012,07,15,01,12,15.60
2012,07,15,01,13,15.60
2012,07,15,01,14,15.60
2012,07,15,01,15,15.60
2012,07,15,01,16,15.60
2012,07,15,01,17,15.60
2012,07,15,01,18,15.60
2012,07,15,01,19,15.50
2012,07,15,01,20,15.50
2012,07,15,01,21,15.50
2012,07,15,01,22,15.60
2012,07,15,01,23,15.60
2012,07,15,01,24,15.70
2012,07,15,01,25,15.80
2012,07,15,01,26,15.80
2012,07,15,01,27,15.80
2012,07,15,01,28,15.90
2012,07,15,01,29,15.90
2012,07,15,01,30,15.90
2012,07,15,01,31,15.90
2012,07,15,01,32,15.90
2012,07,15,01,33,16.00
2012,07,15,01,34,16.00
2012,07,15,01,35,16.00
2012,07,15,01,36,16.10
2012,07,15,01,37,16.10
2012,07,15,01,38,16.10
2012,07,15,01,39,16.10
2012,07,15,01,40,16.10
2012,07,15,01,41,16.10
2012,07,15,01,42,16.10
2012,07,15,01,43,16.10
2012,07,15,01,44,16.00
2012,07,15,01,45,16.00
2012,07,15,01,46,16.00
2012,07,15,01,47,16.00
2012,07,15,01,48,16.00
2012,07,15,01,49,16.00
2012,07,15,01,50,15.90
2012,07,15,01,51,15.90
2012,07,15,01,52,15.90
2012,07,15,01,53,15.90
2012,07,15,01,54,15.80
2012,07,15,01,55,15.80
2012,07,15,01,56,15.80
2012,07,15,01,57,15.70
2012,07,15,01,58,15.70
2012,07,15,01,59,15.70
2012,07,15,02,00,15.70
2012,07,15,02,01,15.60
2012,07,15,02,02,15.60
2012,07,15,02,03,15.50
2012,07,15,02,04,15.50
2012,07,15,02,05,15.50
2012,07,15,02,06,15.50
2012,07,15,02,07,15.40
2012,07,15,02,08,15.40
2012,07,15,02,09,15.40
2012,07,15,02,10,15.40
2012,07,15,02,11,15.30
2012,07,15,02,12,15.30
2012,07,15,02,13,15.30
2012,07,15,02,14,15.30
2012,07,15,02,15,15.30
2012,07,15,02,16,15.30
2012,07,15,02,17,15.30
2012,07,15,02,18,15.30
2012,07,15,02,19,15.40
2012,07,15,02,20,15.40
2012,07,15,02,21,15.50
2012,07,15,02,22,15.50
2012,07,15,02,23,15.60
2012,07,15,02,24,15.60
2012,07,15,02,25,15.60
2012,07,15,02,26,15.70
2012,07,15,02,27,15.70
2012,07,15,02,28,15.70
2012,07,15,02,29,15.70
2012,07,15,02,30,15.70
2012,07,15,02,31,15.70
2012,07,15,02,32,15.60
2012,07,15,02,33,15.60
2012,07,15,02,34,15.60
2012,07,15,02,35,15.50
2012,07,15,02,36,15.50
2012,07,15,02,37,15.40
2012,07,15,02,38,15.40
2012,07,15,02,39,15.40
2012,07,15,02,40,15.30
2012,07,15,02,41,15.30
2012,07,15,02,42,15.30
2012,07,15,02,43,15.30
2012,07,15,02,44,15.30
2012,07,15,02,45,15.30
2012,07,15,02,46,15.30
2012,07,15,02,47,15.30
2012,07,15,02,48,15.30
2012,07,15,02,49,15.30
2012,07,15,02,50,15.30
2012,07,15,02,51,15.30
2012,07,15,02,52,15.30
2012,07,15,02,53,15.30
2012,07,15,02,54,15.30
2012,07,15,02,55,15.30
2012,07,15,02,56,15.30
2012,07,15,02,57,15.30
2012,07,15,02,58,15.30
2012,07,15,02,59,15.40
2012,07,15,03,00,15.40
2012,07,15,03,01,15.40
2012,07,15,03,02,15.40
2012,07,15,03,03,15.50
2012,07,15,03,04,15.50
2012,07,15,03,05,15.50
2012,07,15,03,06,15.50
2012,07,15,03,07,15.60
2012,07,15,03,08,15.60
2012,07,15,03,09,15.60
2012,07,15,03,10,15.60
2012,07,15,03,11,15.60
2012,07,15,03,12,15.60
2012,07,15,03,13,15.60
2012,07,15,03,14,15.60
2012,07,15,03,15,15.60
2012,07,15,03,16,15.60
2012,07,15,03,17,15.60
2012,07,15,03,18,15.60
2012,07,15,03,19,15.60
2012,07,15,03,20,15.70
2012,07,15,03,21,15.70
2012,07,15,03,22,15.70
2012,07,15,03,23,15.70
2012,07,15,03,24,15.80
2012,07,15,03,25,15.80
2012,07,15,03,26,15.80
2012,07,15,03,27,15.80
2012,07,15,03,28,15.90
2012,07,15,03,29,15.90
2012,07,15,03,30,15.90
2012,07,15,03,31,15.90
2012,07,15,03,32,15.90
2012,07,15,03,33,16.00
2012,07,15,03,34,16.10
2012,07,15,03,35,16.10
2012,07,15,03,36,16.10
2012,07,15,03,37,16.20
2012,07,15,03,38,16.20
2012,07,15,03,39,16.20
2012,07,15,03,40,16.30
2012,07,15,03,41,16.30
2012,07,15,03,42,16.30
2012,07,15,03,43,16.30
2012,07,15,03,44,16.30
2012,07,15,03,45,16.30
2012,07,15,03,46,16.30
2012,07,15,03,47,16.40
2012,07,15,03,48,16.40
2012,07,15,03,49,16.40
2012,07,15,03,50,16.40
2012,07,15,03,51,16.40
2012,07,15,03,52,16.40
2012,07,15,03,53,16.40
2012,07,15,03,54,16.40
2012,07,15,03,55,16.40
2012,07,15,03,56,16.40
2012,07,15,03,57,16.40
2012,07,15,03,58,16.40
2012,07,15,03,59,16.40
2012,07,15,04,00,16.40
2012,07,15,04,01,16.40
2012,07,15,04,02,16.50
2012,07,15,04,03,16.50
2012,07,15,04,04,16.50
2012,07,15,04,05,16.50
2012,07,15,04,06,16.50
2012,07,15,04,07,16.60
2012,07,15,04,08,16.60
2012,07,15,04,09,16.60
2012,07,15,04,10,16.60
2012,07,15,04,11,16.60
2012,07,15,04,12,16.60
2012,07,15,04,13,16.70
2012,07,15,04,14,16.60
2012,07,15,04,15,16.60
2012,07,15,04,16,16.60
2012,07,15,04,17,16.60
2012,07,15,04,18,16.60
2012,07,15,04,19,16.50
2012,07,15,04,20,16.50
2012,07,15,04,21,16.40
2012,07,15,04,22,16.40
2012,07,15,04,23,16.30
2012,07,15,04,24,16.30
2012,07,15,04,25,16.30
2012,07,15,04,26,16.40
2012,07,15,04,27,16.40
2012,07,15,04,28,16.40
2012,07,15,04,29,16.50
2012,07,15,04,30,16.50
2012,07,15,04,31,16.50
2012,07,15,04,32,16.50
2012,07,15,04,33,16.50
2012,07,15,04,34,16.50
2012,07,15,04,35,16.50
2012,07,15,04,36,16.40
2012,07,15,04,37,16.40
2012,07,15,04,38,16.40
2012,07,15,04,39,16.30
2012,07,15,04,40,16.30
2012,07,15,04,41,16.30
2012,07,15,04,42,16.20
2012,07,15,04,43,16.20
2012,07,15,04,44,16.20
2012,07,15,04,45,16.20
2012,07,15,04,46,16.20
2012,07,15,04,47,16.20
2012,07,15,04,48,16.20
2012,07,15,04,49,16.20
2012,07,15,04,50,16.20
2012,07,15,04,51,16.20
2012,07,15,04,52,16.20
2012,07,15,04,53,16.30
2012,07,15,04,54,16.30
2012,07,15,04,55,16.30
2012,07,15,04,56,16.30
2012,07,15,04,57,16.40
2012,07,15,04,58,16.40
2012,07,15,04,59,16.50
2012,07,15,05,00,16.50
2012,07,15,05,01,16.60
2012,07,15,05,02,16.70
2012,07,15,05,03,16.70
2012,07,15,05,04,16.80
2012,07,15,05,05,16.80
2012,07,15,05,06,16.90
2012,07,15,05,07,16.90
2012,07,15,05,08,16.90
2012,07,15,05,09,17.00
2012,07,15,05,10,17.00
2012,07,15,05,11,17.10
2012,07,15,05,12,17.10
2012,07,15,05,13,17.10
2012,07,15,05,14,17.10
2012,07,15,05,15,17.10
2012,07,15,05,16,17.10
2012,07,15,05,17,17.10
2012,07,15,05,18,17.20
2012,07,15,05,19,17.20
2012,07,15,05,20,17.10
2012,07,15,05,21,17.10
2012,07,15,05,22,17.10
2012,07,15,05,23,17.10
2012,07,15,05,24,17.10
2012,07,15,05,25,17.10
2012,07,15,05,26,17.10
2012,07,15,05,27,17.10
2012,07,15,05,28,17.10
2012,07,15,05,29,17.10
2012,07,15,05,30,17.10
2012,07,15,05,31,17.10
2012,07,15,05,32,17.10
2012,07,15,05,33,17.10
2012,07,15,05,34,17.10
2012,07,15,05,35,17.10
2012,07,15,05,36,17.10
2012,07,15,05,37,17.10
2012,07,15,05,38,17.10
2012,07,15,05,39,17.10
2012,07,15,05,40,17.10
2012,07,15,05,41,17.10
2012,07,15,05,42,17.10
2012,07,15,05,43,17.10
2012,07,15,05,44,17.10
2012,07,15,05,45,17.10
2012,07,15,05,46,17.00
2012,07,15,05,47,17.00
2012,07,15,05,48,17.00
2012,07,15,05,49,17.00
2012,07,15,05,50,17.00
2012,07,15,05,51,16.90
2012,07,15,05,52,16.90
2012,07,15,05,53,16.90
2012,07,15,05,54,16.90
2012,07,15,05,55,16.90
2012,07,15,05,56,16.90
2012,07,15,05,57,16.90
2012,07,15,05,58,16.90
2012,07,15,05,59,16.80
2012,07,15,06,00,16.80
2012,07,15,06,01,16.80
2012,07,15,06,02,16.80
2012,07,15,06,03,16.80
2012,07,15,06,04,16.80
2012,07,15,06,05,16.70
2012,07,15,06,06,16.70
2012,07,15,06,07,16.70
2012,07,15,06,08,16.70
2012,07,15,06,09,16.60
2012,07,15,06,10,16.60
2012,07,15,06,11,16.60
2012,07,15,06,12,16.60
2012,07,15,06,13,16.50
2012,07,15,06,14,16.50
2012,07,15,06,15,16.50
2012,07,15,06,16,16.40
2012,07,15,06,17,16.40
2012,07,15,06,18,16.40
2012,07,15,06,19,16.40
2012,07,15,06,20,16.40
2012,07,15,06,21,16.40
2012,07,15,06,22,16.40
2012,07,15,06,23,16.40
2012,07,15,06,24,16.40
2012,07,15,06,25,16.40
2012,07,15,06,26,16.40
2012,07,15,06,27,16.40
2012,07,15,06,28,16.40
2012,07,15,06,29,16.30
2012,07,15,06,30,16.30
2012,07,15,06,31,16.30
2012,07,15,06,32,16.30
2012,07,15,06,33,16.30
2012,07,15,06,34,16.30
2012,07,15,06,35,16.30
2012,07,15,06,36,16.30
2012,07,15,06,37,16.30
2012,07,15,06,38,16.30
2012,07,15,06,39,16.20
2012,07,15,06,40,16.20
2012,07,15,06,41,16.20
2012,07,15,06,42,16.20
2012,07,15,06,43,16.20
2012,07,15,06,44,16.20
2012,07,15,06,45,16.10
2012,07,15,06,46,16.10
2012,07,15,06,47,16.10
2012,07,15,06,48,16.10
2012,07,15,06,49,16.10
2012,07,15,06,50,16.10
2012,07,15,06,51,16.10
2012,07,15,06,52,16.10
2012,07,15,06,53,16.00
2012,07,15,06,54,16.00
2012,07,15,06,55,16.00
2012,07,15,06,56,16.00
2012,07,15,06,57,15.90
2012,07,15,06,58,15.90
2012,07,15,06,59,15.90
2012,07,15,07,00,15.90
2012,07,15,07,01,15.90
2012,07,15,07,02,15.90
2012,07,15,07,03,15.80
2012,07,15,07,04,15.80
2012,07,15,07,05,15.80
2012,07,15,07,06,15.80
2012,07,15,07,07,15.80
2012,07,15,07,08,15.80
2012,07,15,07,09,15.70
2012,07,15,07,10,15.70
2012,07,15,07,11,15.70
2012,07,15,07,12,15.70
2012,07,15,07,13,15.70
2012,07,15,07,14,15.60
2012,07,15,07,15,15.60
2012,07,15,07,16,15.60
2012,07,15,07,17,15.60
2012,07,15,07,18,15.60
2012,07,15,07,19,15.60
2012,07,15,07,20,15.60
2012,07,15,07,21,15.60
2012,07,15,07,22,15.60
2012,07,15,07,23,15.70
2012,07,15,07,24,15.70
2012,07,15,07,25,15.70
2012,07,15,07,26,15.70
2012,07,15,07,27,15.70
2012,07,15,07,28,15.70
2012,07,15,07,29,15.70
2012,07,15,07,30,15.70
2012,07,15,07,31,15.80
2012,07,15,07,32,15.80
2012,07,15,07,33,15.80
2012,07,15,07,34,15.80
2012,07,15,07,35,15.80
2012,07,15,07,36,15.80
2012,07,15,07,37,15.80
2012,07,15,07,38,15.90
2012,07,15,07,39,15.90
2012,07,15,07,40,15.90
2012,07,15,07,41,15.90
2012,07,15,07,42,15.90
2012,07,15,07,43,15.90
2012,07,15,07,44,16.00
2012,07,15,07,45,16.00
2012,07,15,07,46,16.00
2012,07,15,07,47,16.00
2012,07,15,07,48,16.00
2012,07,15,07,49,16.10
2012,07,15,07,50,16.10
2012,07,15,07,51,16.10
2012,07,15,07,52,16.10
2012,07,15,07,53,16.10
2012,07,15,07,54,16.10
2012,07,15,07,55,16.10
2012,07,15,07,56,16.10
2012,07,15,07,57,16.10
2012,07,15,07,58,16.10
2012,07,15,07,59,16.20
2012,07,15,08,00,16.20
2012,07,15,08,01,16.20
2012,07,15,08,02,16.20
2012,07,15,08,03,16.20
2012,07,15,08,04,16.20
2012,07,15,08,05,16.20
2012,07,15,08,06,16.20
2012,07,15,08,07,16.20
2012,07,15,08,08,16.20
2012,07,15,08,09,16.20
2012,07,15,08,10,16.30
2012,07,15,08,11,16.30
2012,07,15,08,12,16.30
2012,07,15,08,13,16.30
2012,07,15,08,14,16.30
2012,07,15,08,15,16.30
2012,07,15,08,16,16.30
2012,07,15,08,17,16.40
2012,07,15,08,18,16.40
2012,07,15,08,19,16.50
2012,07,15,08,20,16.50
2012,07,15,08,21,16.50
2012,07,15,08,22,16.60
2012,07,15,08,23,16.60
2012,07,15,08,24,16.60
2012,07,15,08,25,16.70
2012,07,15,08,26,16.70
2012,07,15,08,27,16.70
2012,07,15,08,28,16.70
2012,07,15,08,29,16.70
2012,07,15,08,30,16.70
2012,07,15,08,31,16.70
2012,07,15,08,32,16.70
2012,07,15,08,33,16.70
2012,07,15,08,34,16.70
2012,07,15,08,35,16.70
2012,07,15,08,36,16.70
2012,07,15,08,37,16.70
2012,07,15,08,38,16.80
2012,07,15,08,39,16.80
2012,07,15,08,40,16.80
2012,07,15,08,41,16.80
2012,07,15,08,42,16.80
2012,07,15,08,43,16.80
2012,07,15,08,44,16.80
2012,07,15,08,45,16.80
2012,07,15,08,46,16.80
2012,07,15,08,47,16.80
2012,07,15,08,48,16.80
2012,07,15,08,49,16.80
2012,07,15,08,50,16.80
2012,07,15,08,51,16.80
2012,07,15,08,52,16.80
2012,07,15,08,53,16.80
2012,07,15,08,54,16.80
2012,07,15,08,55,16.90
2012,07,15,08,56,16.90
2012,07,15,08,57,16.90
2012,07,15,08,58,16.90
2012,07,15,08,59,16.90
2012,07,15,09,00,16.90
2012,07,15,09,01,16.90
2012,07,15,09,02,16.90
2012,07,15,09,03,17.00
2012,07,15,09,04,16.90
2012,07,15,09,05,16.90
2012,07,15,09,06,16.90
2012,07,15,09,07,16.90
2012,07,15,09,08,16.90
2012,07,15,09,09,16.90
2012,07,15,09,10,16.90
2012,07,15,09,11,16.90
2012,07,15,09,12,16.90
2012,07,15,09,13,16.90
2012,07,15,09,14,16.90
2012,07,15,09,15,16.90
2012,07,15,09,16,16.90
2012,07,15,09,17,16.90
2012,07,15,09,18,16.90
2012,07,15,09,19,16.90
2012,07,15,09,20,16.90
2012,07,15,09,21,16.80
2012,07,15,09,22,16.80
2012,07,15,09,23,16.80
2012,07,15,09,24,16.80
2012,07,15,09,25,16.80
2012,07,15,09,26,16.80
2012,07,15,09,27,16.80
2012,07,15,09,28,16.80
2012,07,15,09,29,16.80
2012,07,15,09,30,16.80
2012,07,15,09,31,16.80
2012,07,15,09,32,16.80
2012,07,15,09,33,16.80
2012,07,15,09,34,16.80
2012,07,15,09,35,16.80
2012,07,15,09,36,16.80
2012,07,15,09,37,16.80
2012,07,15,09,38,16.80
2012,07,15,09,39,16.80
2012,07,15,09,40,16.80
2012,07,15,09,41,16.80
2012,07,15,09,42,16.80
2012,07,15,09,43,16.80
2012,07,15,09,44,16.80
2012,07,15,09,45,16.80
2012,07,15,09,46,16.80
2012,07,15,09,47,16.80
2012,07,15,09,48,16.80
2012,07,15,09,49,16.80
2012,07,15,09,50,16.80
2012,07,15,09,51,16.80
2012,07,15,09,52,16.80
2012,07,15,09,53,16.70
2012,07,15,09,54,16.70
2012,07,15,09,55,16.70
2012,07,15,09,56,16.70
2012,07,15,09,57,16.60
2012,07,15,09,58,16.60
2012,07,15,09,59,16.50
2012,07,15,10,00,16.50
2012,07,15,10,01,16.40
2012,07,15,10,02,16.40
2012,07,15,10,03,16.40
2012,07,15,10,04,16.40
2012,07,15,10,05,16.30
2012,07,15,10,06,16.30
2012,07,15,10,07,16.30
2012,07,15,10,08,16.30
2012,07,15,10,09,16.20
2012,07,15,10,10,16.20
2012,07,15,10,11,16.20
2012,07,15,10,12,16.20
2012,07,15,10,13,16.20
2012,07,15,10,14,16.20
2012,07,15,10,15,16.20
2012,07,15,10,16,16.20
2012,07,15,10,17,16.20
2012,07,15,10,18,16.20
2012,07,15,10,19,16.20
2012,07,15,10,20,16.20
2012,07,15,10,21,16.20
2012,07,15,10,22,16.20
2012,07,15,10,23,16.30
2012,07,15,10,24,16.30
2012,07,15,10,25,16.30
2012,07,15,10,26,16.30
2012,07,15,10,27,16.30
2012,07,15,10,28,16.30
2012,07,15,10,29,16.30
2012,07,15,10,30,16.30
2012,07,15,10,31,16.30
2012,07,15,10,32,16.30
2012,07,15,10,33,16.30
2012,07,15,10,34,16.30
2012,07,15,10,35,16.30
2012,07,15,10,36,16.30
2012,07,15,10,37,16.30
2012,07,15,10,38,16.30
2012,07,15,10,39,16.30
2012,07,15,10,40,16.20
2012,07,15,10,41,16.20
2012,07,15,10,42,16.20
2012,07,15,10,43,16.20
2012,07,15,10,44,16.20
2012,07,15,10,45,16.20
2012,07,15,10,46,16.20
2012,07,15,10,47,16.20
2012,07,15,10,48,16.30
2012,07,15,10,49,16.30
2012,07,15,10,50,16.30
2012,07,15,10,51,16.30
2012,07,15,10,52,16.30
2012,07,15,10,53,16.30
2012,07,15,10,54,16.30
2012,07,15,10,55,16.40
2012,07,15,10,56,16.40
2012,07,15,10,57,16.40
2012,07,15,10,58,16.40
2012,07,15,10,59,16.40
2012,07,15,11,00,16.40
2012,07,15,11,01,16.40
2012,07,15,11,02,16.40
2012,07,15,11,03,16.40
2012,07,15,11,04,16.40
2012,07,15,11,05,16.40
2012,07,15,11,06,16.30
2012,07,15,11,07,16.30
2012,07,15,11,08,16.30
2012,07,15,11,09,16.30
2012,07,15,11,10,16.30
2012,07,15,11,11,16.30
2012,07,15,11,12,16.30
2012,07,15,11,13,16.30
2012,07,15,11,14,16.30
2012,07,15,11,15,16.40
2012,07,15,11,16,16.40
2012,07,15,11,17,16.40
2012,07,15,11,18,16.40
2012,07,15,11,19,16.40
2012,07,15,11,20,16.40
2012,07,15,11,21,16.40
2012,07,15,11,22,16.40
2012,07,15,11,23,16.40
2012,07,15,11,24,16.40
2012,07,15,11,25,16.40
2012,07,15,11,26,16.40
2012,07,15,11,27,16.40
2012,07,15,11,28,16.40
2012,07,15,11,29,16.40
2012,07,15,11,30,16.40
2012,07,15,11,31,16.40
2012,07,15,11,32,16.40
2012,07,15,11,33,16.40
2012,07,15,11,34,16.40
2012,07,15,11,35,16.40
2012,07,15,11,36,16.40
2012,07,15,11,37,16.40
2012,07,15,11,38,16.40
2012,07,15,11,39,16.40
2012,07,15,11,40,16.50
2012,07,15,11,41,16.50
2012,07,15,11,42,16.50
2012,07,15,11,43,16.60
2012,07,15,11,44,16.60
2012,07,15,11,45,16.60
2012,07,15,11,46,16.70
2012,07,15,11,47,16.70
2012,07,15,11,48,16.80
2012,07,15,11,49,16.80
2012,07,15,11,50,16.90
2012,07,15,11,51,16.90
2012,07,15,11,52,17.00
2012,07,15,11,53,17.10
2012,07,15,11,54,17.20
2012,07,15,11,55,17.30
2012,07,15,11,56,17.30
2012,07,15,11,57,17.40
2012,07,15,11,58,17.50
2012,07,15,11,59,17.50
2012,07,15,12,00,17.50
2012,07,15,12,01,17.50
2012,07,15,12,02,17.40
2012,07,15,12,03,17.40
2012,07,15,12,04,17.40
2012,07,15,12,05,17.40
2012,07,15,12,06,17.30
2012,07,15,12,07,17.30
2012,07,15,12,08,17.40
2012,07,15,12,09,17.40
2012,07,15,12,10,17.40
2012,07,15,12,11,17.40
2012,07,15,12,12,17.50
2012,07,15,12,13,17.50
2012,07,15,12,14,17.50
2012,07,15,12,15,17.40
2012,07,15,12,16,17.40
2012,07,15,12,17,17.40
2012,07,15,12,18,17.40
2012,07,15,12,19,17.30
2012,07,15,12,20,17.30
2012,07,15,12,21,17.20
2012,07,15,12,22,17.10
2012,07,15,12,23,17.10
2012,07,15,12,24,17.10
2012,07,15,12,25,17.10
2012,07,15,12,26,17.10
2012,07,15,12,27,17.10
2012,07,15,12,28,17.00
2012,07,15,12,29,17.00
2012,07,15,12,30,17.00
2012,07,15,12,31,17.00
2012,07,15,12,32,17.00
2012,07,15,12,33,17.00
2012,07,15,12,34,17.10
2012,07,15,12,35,17.10
2012,07,15,12,36,17.10
2012,07,15,12,37,17.10
2012,07,15,12,38,17.10
2012,07,15,12,39,17.10
2012,07,15,12,40,17.20
2012,07,15,12,41,17.20
2012,07,15,12,42,17.20
2012,07,15,12,43,17.20
2012,07,15,12,44,17.20
2012,07,15,12,45,17.20
2012,07,15,12,46,17.10
2012,07,15,12,47,17.10
2012,07,15,12,48,17.10
2012,07,15,12,49,17.10
2012,07,15,12,50,17.10
2012,07,15,12,51,17.10
2012,07,15,12,52,17.10
2012,07,15,12,53,17.10
2012,07,15,12,54,17.10
2012,07,15,12,55,17.00
2012,07,15,12,56,17.00
2012,07,15,12,57,16.90
2012,07,15,12,58,16.90
2012,07,15,12,59,16.90
2012,07,15,13,00,16.90
2012,07,15,13,01,16.90
2012,07,15,13,02,16.90
2012,07,15,13,03,17.00
2012,07,15,13,04,17.00
2012,07,15,13,05,17.10
2012,07,15,13,06,17.10
2012,07,15,13,07,17.20
2012,07,15,13,08,17.20
2012,07,15,13,09,17.30
2012,07,15,13,10,17.30
2012,07,15,13,11,17.30
2012,07,15,13,12,17.40
2012,07,15,13,13,17.40
2012,07,15,13,14,17.40
2012,07,15,13,15,17.40
2012,07,15,13,16,17.40
2012,07,15,13,17,17.40
2012,07,15,13,18,17.40
2012,07,15,13,19,17.40
2012,07,15,13,20,17.30
2012,07,15,13,21,17.30
2012,07,15,13,22,17.30
2012,07,15,13,23,17.20
2012,07,15,13,24,17.20
2012,07,15,13,25,17.20
2012,07,15,13,26,17.10
2012,07,15,13,27,17.10
2012,07,15,13,28,17.10
2012,07,15,13,29,17.00
2012,07,15,13,30,17.00
2012,07,15,13,31,16.90
2012,07,15,13,32,16.90
2012,07,15,13,33,16.80
2012,07,15,13,34,16.70
2012,07,15,13,35,16.70
2012,07,15,13,36,16.60
2012,07,15,13,37,16.60
2012,07,15,13,38,16.50
2012,07,15,13,39,16.50
2012,07,15,13,40,16.40
2012,07,15,13,41,16.40
2012,07,15,13,42,16.40
2012,07,15,13,43,16.40
2012,07,15,13,44,16.40
2012,07,15,13,45,16.30
2012,07,15,13,46,16.30
2012,07,15,13,47,16.30
2012,07,15,13,48,16.30
2012,07,15,13,49,16.20
2012,07,15,13,50,16.20
2012,07,15,13,51,16.20
2012,07,15,13,52,16.10
2012,07,15,13,53,16.10
2012,07,15,13,54,16.00
2012,07,15,13,55,15.90
2012,07,15,13,56,15.90
2012,07,15,13,57,15.90
2012,07,15,13,58,15.80
2012,07,15,13,59,15.80
2012,07,15,14,00,15.80
2012,07,15,14,01,15.70
2012,07,15,14,02,15.70
2012,07,15,14,03,15.70
2012,07,15,14,04,15.60
2012,07,15,14,05,15.60
2012,07,15,14,06,15.60
2012,07,15,14,07,15.50
2012,07,15,14,08,15.50
2012,07,15,14,09,15.50
2012,07,15,14,10,15.40
2012,07,15,14,11,15.40
2012,07,15,14,12,15.40
2012,07,15,14,13,15.30
2012,07,15,14,14,15.30
2012,07,15,14,15,15.30
2012,07,15,14,16,15.20
2012,07,15,14,17,15.20
2012,07,15,14,18,15.10
2012,07,15,14,19,15.00
2012,07,15,14,20,15.00
2012,07,15,14,21,15.00
2012,07,15,14,22,15.00
2012,07,15,14,23,15.00
2012,07,15,14,24,15.00
2012,07,15,14,25,15.00
2012,07,15,14,26,15.00
2012,07,15,14,27,15.00
2012,07,15,14,28,15.00
2012,07,15,14,29,15.00
2012,07,15,14,30,15.00
2012,07,15,14,31,15.00
2012,07,15,14,32,15.00
2012,07,15,14,33,14.90
2012,07,15,14,34,14.80
2012,07,15,14,35,14.80
2012,07,15,14,36,14.80
2012,07,15,14,37,14.80
2012,07,15,14,38,14.80
2012,07,15,14,39,14.70
2012,07,15,14,40,14.70
2012,07,15,14,41,14.70
2012,07,15,14,42,14.60
2012,07,15,14,43,14.60
2012,07,15,14,44,14.60
2012,07,15,14,45,14.70
2012,07,15,14,46,14.70
2012,07,15,14,47,14.80
2012,07,15,14,48,14.70
2012,07,15,14,49,14.70
2012,07,15,14,50,14.70
2012,07,15,14,51,14.80
2012,07,15,14,52,14.80
2012,07,15,14,53,14.80
2012,07,15,14,54,14.80
2012,07,15,14,55,14.70
2012,07,15,14,56,14.70
2012,07,15,14,57,14.70
2012,07,15,14,58,14.70
2012,07,15,14,59,14.70
2012,07,15,15,00,14.70
2012,07,15,15,01,14.70
2012,07,15,15,02,14.70
2012,07,15,15,03,14.70
2012,07,15,15,04,14.80
2012,07,15,15,05,14.80
2012,07,15,15,06,14.80
2012,07,15,15,07,14.80
2012,07,15,15,08,14.80
2012,07,15,15,09,14.80
2012,07,15,15,10,14.90
2012,07,15,15,11,14.90
2012,07,15,15,12,14.90
2012,07,15,15,13,15.00
2012,07,15,15,14,15.00
2012,07,15,15,15,15.00
2012,07,15,15,16,15.00
2012,07,15,15,17,15.00
2012,07,15,15,18,15.10
2012,07,15,15,19,15.20
2012,07,15,15,20,15.20
2012,07,15,15,21,15.30
2012,07,15,15,22,15.40
2012,07,15,15,23,15.50
2012,07,15,15,24,15.70
2012,07,15,15,25,15.80
2012,07,15,15,26,15.90
2012,07,15,15,27,16.10
2012,07,15,15,28,16.20
2012,07,15,15,29,16.30
2012,07,15,15,30,16.30
2012,07,15,15,31,16.40
2012,07,15,15,32,16.50
2012,07,15,15,33,16.70
2012,07,15,15,34,16.80
2012,07,15,15,35,16.90
2012,07,15,15,36,17.00
2012,07,15,15,37,17.10
2012,07,15,15,38,17.10
2012,07,15,15,39,17.20
2012,07,15,15,40,17.20
2012,07,15,15,41,17.20
2012,07,15,15,42,17.10
2012,07,15,15,43,17.10
2012,07,15,15,44,17.10
2012,07,15,15,45,17.10
2012,07,15,15,46,17.10
2012,07,15,15,47,17.10
2012,07,15,15,48,17.10
2012,07,15,15,49,17.10
2012,07,15,15,50,17.10
2012,07,15,15,51,17.20
2012,07,15,15,52,17.20
2012,07,15,15,53,17.30
2012,07,15,15,54,17.30
2012,07,15,15,55,17.40
2012,07,15,15,56,17.50
2012,07,15,15,57,17.60
2012,07,15,15,58,17.60
2012,07,15,15,59,17.60
2012,07,15,16,00,17.60
2012,07,15,16,01,17.60
2012,07,15,16,02,17.60
2012,07,15,16,03,17.60
2012,07,15,16,04,17.50
2012,07,15,16,05,17.50
2012,07,15,16,06,17.60
2012,07,15,16,07,17.60
2012,07,15,16,08,17.60
2012,07,15,16,09,17.70
2012,07,15,16,10,17.70
2012,07,15,16,11,17.60
2012,07,15,16,12,17.60
2012,07,15,16,13,17.60
2012,07,15,16,14,17.60
2012,07,15,16,15,17.60
2012,07,15,16,16,17.60
2012,07,15,16,17,17.60
2012,07,15,16,18,17.60
2012,07,15,16,19,17.70
2012,07,15,16,20,17.80
2012,07,15,16,21,17.90
2012,07,15,16,22,18.10
2012,07,15,16,23,18.20
2012,07,15,16,24,18.20
2012,07,15,16,25,18.10
2012,07,15,16,26,18.10
2012,07,15,16,27,18.10
2012,07,15,16,28,18.10
2012,07,15,16,29,18.10
2012,07,15,16,30,18.10
2012,07,15,16,31,18.00
2012,07,15,16,32,17.90
2012,07,15,16,33,17.80
2012,07,15,16,34,17.60
2012,07,15,16,35,17.60
2012,07,15,16,36,17.50
2012,07,15,16,37,17.50
2012,07,15,16,38,17.60
2012,07,15,16,39,17.50
2012,07,15,16,40,17.50
2012,07,15,16,41,17.50
2012,07,15,16,42,17.40
2012,07,15,16,43,17.40
2012,07,15,16,44,17.40
2012,07,15,16,45,17.40
2012,07,15,16,46,17.40
2012,07,15,16,47,17.40
2012,07,15,16,48,17.30
2012,07,15,16,49,17.40
2012,07,15,16,50,17.40
2012,07,15,16,51,17.50
2012,07,15,16,52,17.50
2012,07,15,16,53,17.50
2012,07,15,16,54,17.60
2012,07,15,16,55,17.60
2012,07,15,16,56,17.60
2012,07,15,16,57,17.70
2012,07,15,16,58,17.70
2012,07,15,16,59,17.70
2012,07,15,17,00,17.70
2012,07,15,17,01,17.70
2012,07,15,17,02,17.70
2012,07,15,17,03,17.70
2012,07,15,17,04,17.60
2012,07,15,17,05,17.50
2012,07,15,17,06,17.40
2012,07,15,17,07,17.40
2012,07,15,17,08,17.40
2012,07,15,17,09,17.30
2012,07,15,17,10,17.20
2012,07,15,17,11,17.20
2012,07,15,17,12,17.20
2012,07,15,17,13,17.20
2012,07,15,17,14,17.20
2012,07,15,17,15,17.20
2012,07,15,17,16,17.30
2012,07,15,17,17,17.40
2012,07,15,17,18,17.50
2012,07,15,17,19,17.60